Regional Weather Roundup
Issued by NWS Northern Indiana

Home | Current Version | Previous Version | Text Only | Print | Product List | Glossary On
Versions: 1 2 3 4 5 6 7 8 9 10 11 12 13 14 15 16 17 18 19 20 21 22 23 24 25 26 27 28 29 30 31 32 33 34 35 36 37 38 39 40 41 42 43 44 45 46 47 48 49 50
279
ASUS43 KIWX 190510
RWRIWX

KIWX WEATHER ROUNDUP
NATIONAL WEATHER SERVICE NORTHERN INDIANA
100 AM EDT THU OCT 19 2017

NOTE: "FAIR" INDICATES FEW OR NO CLOUDS BELOW 12,000 FEET WITH NO
SIGNIFICANT WEATHER AND/OR OBSTRUCTIONS TO VISIBILITY.

* THESE STATIONS ARE NOT UNDER NWS QUALITY CONTROL. THEY ALSO MAY NOT
  REPORT WEATHER SUCH AS PRECIPITATION OR FOG.

INZ001>027-190600-
NORTHERN INDIANA

CITY           SKY/WX    TMP DP  RH WIND       PRES   REMARKS
GARY*          CLEAR     59  44  56 S7        30.07F
VALPARAISO     CLEAR     56  46  69 S8        30.10S
MICHIGAN CITY* CLEAR     54  45  71 S8        30.09F
LAPORTE*       CLEAR     53  44  73 S5        30.10F
KNOX*          CLEAR     52  43  71 S6        30.10S
SOUTH BEND     CLEAR     55  45  68 SW10      30.11R
GOSHEN         CLEAR     55  42  61 SW10      30.10F
MONTICELLO*    CLEAR     54  44  67 S6        30.12S
LOGANSPORT*    CLEAR     46  41  81 S8        30.13F
WARSAW*        CLEAR     55  45  67 CALM      30.11F
AUBURN*        CLEAR     52  41  66 SW5       30.13S
FORT WAYNE     PTCLDY    48  41  76 S8        30.14F
HUNTINGTON*    CLEAR     51  44  75 S3        30.14S
PERU/GRISSOM   CLEAR     53  45  74 S10       30.12F

$$
INZ028>050-190600-
CENTRAL INDIANA

CITY           SKY/WX    TMP DP  RH WIND       PRES   REMARKS
LAFAYETTE      CLEAR     49  44  83 CALM      30.13S
KOKOMO*        PTCLDY    50  44  80 S7        30.15F
MUNCIE*        CLEAR     55  44  66 S6        30.16S
INDIANAPOLIS   CLEAR     53  45  74 S9        30.16F

$$
MIZ043>046-050>051-056>058-064>065-071>073-077>080-190600-
SOUTHWEST LOWER MICHIGAN

CITY           SKY/WX    TMP DP  RH WIND       PRES   REMARKS
BATTLE CREEK   CLEAR     55  44  66 SW13      30.08F
BENTON HARBOR  CLEAR     57  43  59 S8        30.07S
COLDWATER*     CLEAR     54  41  61 SW7       30.10F
HILLSDALE*     CLEAR     54  41  62 SW8       30.10F
HOLLAND        CLEAR     60  45  57 SW15G24   30.04F
GRAND RAPIDS   CLOUDY    57  44  62 S14       30.03F
KALAMAZOO      PTCLDY    52  42  69 S8        30.08F
STURGIS*       CLEAR     51  44  75 SW5       30.10F
THREE RIVERS*  FAIR      54  44  70 SW7       30.09F

$$
OHZ001>008-015>018-024>025-190600-
NORTHWEST OHIO

CITY           SKY/WX    TMP DP  RH WIND       PRES   REMARKS
WAUSEON*       FAIR      52  43  71 SW8       30.12F
DEFIANCE       CLEAR     51  41  68 SW7       30.14S
FINDLAY        CLEAR     48  40  73 S8        30.15S
TOLEDO EXPRESS CLEAR     56  44  64 SW8       30.12F
TOLEDO METCALF CLEAR     54  42  64 SW9       30.14S
LIMA           CLEAR     52  43  71 S8        30.16F

$$
AND FOR LAKE MICHIGAN COASTAL AND OPEN LAKE BUOY OBSERVATIONS

STATION/POSITION TEMP    WIND        PRES    VSBY  WAVE
                 AIR SEA DIR/SP/G                  HT/PER
                 (F)     (DEG/KT/KT) (MB)    (MI)  (FT/S)
CALUMET HARBOR    60     200/ 10/ 16 1017.0F
MICHIGAN CITY     60     180/ 14/ 16   N/A
BURNS HARBOR      59     190/ 14/ 17 1018.6S
SAINT JOSEPH      61     200/ 13/ 20 1018.6
SOUTH LAKE BUOY   63 61  230/ 17/ 21 1015.9F         4/ 5
4 MI NW BRIDGMAN  60 58  210/ 16/ 19 1018.4          3/ 4
MICHIGAN CITY     60 58  210/ 16/ 19   N/A           2/ 3

$$
&&




USA.gov is the U.S. government's official web portal to all federal, state and local government web resources and services.